Location: *
(49.5667°N, 1.3667°W)
Time: 05:06:12
(UTC+00:00)

CZ-4C R/B - Pass Details

Date: 20 September 2019
Orbit: 653 x 1349 km, 63.4° (Epoch: 19 October)

Event Time Altitude Azimuth Distance (km) Brightness Sun altitude
Rises 23:29:07 0° 317° (NW) 3,764 6.2 -39.1°
Reaches altitude 10° 23:31:34 10° 317° (NW) 2,904 5.5 -39.2°
Enters shadow 23:35:47 42° 316° (NW) 1,588 3.7 -39.3°
